STARLINK-33696, 63463

Orbit data source: Space-Track

STARLINK-33696, 63463 is a payload satellite owned by SpaceX/Seattle (US) in LEO that was launched on Sun, 06 Apr 2025 UTC via an FALCON 9 launch vehicle from the Air Force Eastern Test Range (AFETR). Payload-class satellites include a variety of spacecraft equipped with specific instruments for various scientific and technological missions. These include communications satellites like Starlink; space stations such as the ISS; scientific satellites like the Hubble; Earth observation satellites from companies like Planet Labs, Umbra, and HawkEye 360; GPS; miniature CubeSats for education and research; and military/defense satellites.

Loading next visibility...
Identifier
63463, 2025-070D
Orbit
LEO
Country
Flag of USUS
Related business
Manufacturer
SpaceX/Seattle
Mission
Operational Commercial Communications
Bus & Motor
STARLINK V2MO, Unknown motor
Mass
575 kg wet, ~530 kg dry
Launch date (UTC)
2025-04-06 (1 year ago)
Launch vehicle
FALCON 9
Launch site
Air Force Eastern Test Range (AFETR)
Object type
Payload
Rocket body
Debris
Shape & HBR
Box + 2 Pan, 17.7 m
Radar Cross Section
36.964 m², Large (>1 m²)

Expand to show TLE details & history
Last TLE update: 18 hours ago

TLE from 18 hours ago
0 STARLINK-33696
1 63463U 25070D   26169.36591508  .00023720  00000-0  86931-3 0  9991
2 63463  43.0013  51.2336 0001003 284.7545  75.3195 15.27557370 68370
Epoch: 2026-06-18T08:46Z
TLE epoch observation values (Epoch: 2026-06-18T08:46:55.062Z)
Latitude
-0.00007°
Longitude
12.89382°
Altitude
482.718 km
Speed
7.626 km/s
True Right ascension
03h 24m 56s
True Declination
0° 00' 00"
Sunlit
Object was in daylight at epoch
Visualization orbit readout
Latitude
Unknown
Longitude
Unknown
Altitude
Unknown
Speed
Unknown
Apparent Right ascension
Unknown
Apparent Declination
Unknown
Sunlit
N/A
Visualization observer readout
Local Sidereal Time
14:02:33
Azimuth
Unknown
Elevation
Unknown
Doppler factor
Unknown
Orbital elements
Apogee altitude
485.75 km
Perigee altitude
484.373 km
Semi-major axis
6,863.199 km
Eccentricity
0.0001
Inclination
43.0013°
RAAN
51.2336°
Arg. of periapsis
284.7545°
True anomaly
75.33062°
Mean anomaly
75.3195°
Eccentric anomaly
75.32506°
Mean motion
3.81727 °/min
Orbital period
94.31 mins
BSTAR
0.00086931
Loading maneuver chart data...
Computing Atmospheric mass density...
Loading historical data...
Loading historical data...
Loading historical data...
Loading historical data...
Loading historical data...
Loading historical data...
Loading historical data...

Documentation

Showing up to 5 results
|